Regional Weather Roundup
Issued by NWS

Home | Current Version | Previous Version | Graphics & Text | Print | Product List | Glossary On
Versions: 1 2 3 4 5 6 7 8 9 10 11 12 13 14 15 16 17 18 19 20 21 22 23 24 25 26 27 28 29 30 31 32 33 34 35 36 37 38 39 40 41 42 43 44 45 46 47 48 49 50
000
ASUS43 KFSD 011310
RWRSD

WEATHER ROUNDUP FOR SOUTH DAKOTA
NATIONAL WEATHER SERVICE SIOUX FALLS SD
800 AM CDT MON SEP 01 2014

NOTE: "FAIR" INDICATES FEW OR NO CLOUDS BELOW 12,000 FEET WITH NO
SIGNIFICANT WEATHER AND/OR OBSTRUCTIONS TO VISIBILITY.


SDZ001>005-009-010-012>017-011400-
NORTHWEST AND NORTH CENTRAL SOUTH DAKOTA

CITY           SKY/WX    TMP DP  RH WIND       PRES   REMARKS
BUFFALO          N/A     50  47  89 W6        29.82R
FAITH            N/A     54  50  86 W8        29.85R
MOBRIDGE       CLEAR     52  51  97 CALM      29.79S
$$

SDZ012>016-024>037-041>051-057-063-072>074-011400-
SOUTHWEST AND SOUTH CENTRAL SOUTH DAKOTA

CITY           SKY/WX    TMP DP  RH WIND       PRES   REMARKS
RAPID CTY ARPT PTCLDY    54  47  77 NW8       29.92R
PIERRE         CLEAR     53  52  96 SW9       29.83R
CUSTER         CLOUDY    48  42  80 NW6       30.01R
ELLSWORTH AFB  MOCLDY    51  48  87 W3        29.91R
PHILIP         CLEAR     51  48  89 W6        29.88S
PINE RIDGE     CLEAR     47  46  97 CALM      29.95R
WINNER         FAIR      56  52  86 W9        29.87R
$$

SDZ004>011-016>023-039-040-011400-
NORTHEAST SOUTH DAKOTA

CITY           SKY/WX    TMP DP  RH WIND       PRES   REMARKS
ABERDEEN       SUNNY     57  55  93 W7        29.77S
WATERTOWN      MOSUNNY   60  59  96 NW3       29.75R FOG
SISSETON         N/A     60  57  89 NW7       29.72R
$$

SDZ017-020-022-023-036>040-048>070-011400-
SOUTHEAST SOUTH DAKOTA

CITY           SKY/WX    TMP DP  RH WIND       PRES   REMARKS
SIOUX FALLS    MOSUNNY   63  60  90 W7        29.76R
HURON          SUNNY     57  55  93 NW10      29.78R
CHAMBERLAIN    CLEAR     55  53  92 W10       29.84R
MITCHELL       SUNNY     60  58  92 SW7       29.78R
YANKTON        SUNNY     61  57  88 W9        29.80R
$$

ABBREVIATIONS USED IN REMARKS
   TC - TEMPERATURE IN CELSIUS
  WCI - WIND CHILL INDEX
   HX - HEAT INDEX
  VSB - VISIBILITY




USA.gov is the U.S. government's official web portal to all federal, state and local government web resources and services.